Location: Norton
(51.3000°N, 0.8167°E)
Time: 02:30:38
(UTC+00:00)

Cosmos 2360 Rocket - Pass Details

Date: 03 March 2021
Orbit: 832 x 846 km, 71.0° (Epoch: 13 April)

Event Time Altitude Azimuth Distance (km) Brightness Sun altitude
Rises 18:37:45 0° 182° (S) 3,377 5.3 -9.6°
Reaches altitude 10° 18:40:19 10° 175° (S) 2,449 4.5 -10.0°
Maximum altitude 18:45:28 38° 108° (ESE) 1,256 2.6 -10.8°
Drops below altitude 10° 18:50:40 10° 42° (NE) 2,473 4.3 -11.7°
Sets 18:53:15 0° 35° (NE) 3,415 5.1 -12.1°
